Terug naar catalogus

SDA_1673

ActiefMilitairPO
NORAD 65983·PAYLOAD·🇺🇸 United States

Gelanceerd Oct 15, 2025 vanaf Vandenberg Space Force Base

Loading…

Volgende Passages (komende 24 uur)

TLE

VersSource: Space-Track

Epoch: Sep 13, 2026, 22:02 UTC

1 65983U 25230K   26256.91806691  .00000136  00000-0  11491-3 0  9993
2 65983  81.3007 129.7713 0001426  51.2616 308.8667 13.82267691 46076

Volg SDA_1673 in realtime met AllMySat

Download on the App Store